Flag for Canada Weather past 2 weeks in Coral Harbour, Nunavut, Canada

30 °F

Light snow. Overcast.

Feels Like: 19 °F
Forecast: 22 / 30 °F
Wind: 15 mph from North

Location: Coral Harbour

Current Time: Oct 4, 2015 at 7:07:41 AM

Latest Report: Oct 4, 2015 at 6:00 AM

Visibility: 15 mi

Pressure: 30.38 "Hg

Humidity: 75%

Dew point: 23 °F

Location of Coral HarbourLocation

Historic Weather in Coral Harbour — Graph


Coral Harbour temperature yesterday

Maximum temperature yesterday: 45 °F (at 2:00 PM)
Minimum temperature yesterday: 30 °F (at 11:00 PM)
Average temperature yesterday: 35 °F

Past Weeks' High & Low Weather Summary

High45 °F (Oct 3, 2:00 PM)100% (Sep 21, 9:00 AM)30.47 "Hg (Sep 21, 9:00 AM)
Low25 °F (Sep 30, 7:00 AM)53% (Sep 19, 1:00 PM)29.11 "Hg (Sep 28, 9:00 AM)
Average33 °F86%29.82 "Hg
* Reported Sep 19 6:00 AM — Oct 4 6:00 AM, Coral Harbour, Weather by CustomWeather, © 2015

Note: Actual official high and low records may vary slightly from our data, if they occured in-between our weather recording intervals... More about our weather records


Coral Harbour weather history for previous 24 hours

Time TempWeatherWind HumidityBarometerVisibility
6:00 AM
Sun, Oct 4
30 °FLight snow. Overcast.15 mph75%30.38 "Hg15 mi
5:00 AM30 °FLight snow. Mostly cloudy.14 mph75%30.37 "Hg15 mi
4:00 AM30 °FPassing clouds.16 mph80%30.34 "Hg15 mi
3:00 AM28 °FPassing clouds.10 mph86%30.32 "Hg15 mi
2:00 AM30 °FPassing clouds.14 mph86%30.28 "Hg15 mi
1:00 AM30 °FPassing clouds.13 mph80%30.26 "Hg15 mi
12:00 AM30 °FPassing clouds.18 mph86%30.23 "Hg15 mi
11:00 PM
Sat, Oct 3
30 °FPassing clouds.22 mph86%30.18 "Hg15 mi
10:00 PM32 °FPassing clouds.25 mph80%30.16 "Hg15 mi
9:50 PM32 °FPassing clouds.22 mph80%30.15 "Hg15 mi
9:00 PM32 °FLight snow. Overcast.25 mph80%30.11 "Hg12 mi
8:00 PM32 °FOvercast.35 mph80%30.05 "Hg15 mi
7:52 PM32 °FOvercast.31 mph80%30.05 "Hg15 mi
7:00 PM32 °FLight rain. Overcast.26 mph87%30.02 "Hg12 mi
6:00 PM34 °FLight rain. Overcast.25 mph87%29.99 "Hg12 mi
5:48 PM34 °FLight rain. Overcast.22 mph87%29.99 "Hg12 mi
5:00 PM34 °FLight rain. Fog.21 mph93%29.99 "Hg6 mi
4:00 PM43 °FFog.5 mph93%29.98 "Hg6 mi
3:00 PM43 °FMostly cloudy.10 mph93%29.98 "Hg12 mi
2:00 PM45 °FScattered showers. More clouds than sun.9 mph93%29.97 "Hg12 mi
1:00 PM41 °FScattered showers. Low clouds.3 mph93%29.98 "Hg8 mi
12:00 PM37 °FMore clouds than sun.5 mph93%30.00 "Hg8 mi
11:00 AM37 °FFog.5 mph100%30.01 "Hg6 mi
10:00 AM37 °FFog.6 mph100%30.03 "Hg4 mi
9:00 AM36 °FFog.6 mph93%30.04 "Hg1 mi
8:00 AM34 °FSprinkles. Fog.16 mph93%30.06 "Hg0 mi
7:46 AM34 °FSprinkles. Fog.15 mph93%30.06 "Hg0 mi
7:00 AM32 °FFog.15 mph100%30.08 "Hg0 mi
Weather by CustomWeather, © 2015

See weather overviewHow to use our weather pages